TimeCST,TemperatureF,Dew PointF,Humidity,Sea Level PressureIn,VisibilityMPH,Wind Direction,Wind SpeedMPH,Gust SpeedMPH,PrecipitationIn,Events,Conditions,WindDirDegrees,DateUTC
12:15 AM,21.0,17.6,87,29.90,10.0,South,8.1,-,N/A,,Overcast,170,2013-02-05 06:15:00
12:35 AM,21.2,17.6,86,29.89,10.0,South,6.9,-,N/A,,Overcast,170,2013-02-05 06:35:00
12:55 AM,21.2,17.6,86,29.89,10.0,South,6.9,-,N/A,,Overcast,180,2013-02-05 06:55:00
1:15 AM,21.6,18.0,86,29.88,10.0,South,9.2,-,N/A,,Overcast,170,2013-02-05 07:15:00
1:35 AM,21.9,18.3,86,29.88,10.0,South,6.9,-,N/A,,Overcast,170,2013-02-05 07:35:00
1:55 AM,22.1,18.3,85,29.87,10.0,South,6.9,-,N/A,,Overcast,180,2013-02-05 07:55:00
2:15 AM,22.1,18.5,86,29.87,10.0,South,8.1,-,N/A,,Overcast,180,2013-02-05 08:15:00
2:35 AM,22.6,18.7,85,29.87,10.0,South,9.2,-,N/A,,Overcast,190,2013-02-05 08:35:00
2:55 AM,22.8,18.9,85,29.86,10.0,South,9.2,-,N/A,,Overcast,190,2013-02-05 08:55:00
3:15 AM,22.8,18.7,84,29.86,10.0,SSW,5.8,-,N/A,,Overcast,200,2013-02-05 09:15:00
3:35 AM,22.6,19.0,86,29.85,10.0,SSW,5.8,-,N/A,,Overcast,200,2013-02-05 09:35:00
3:55 AM,23.0,19.2,85,29.85,10.0,SSW,6.9,-,N/A,,Overcast,200,2013-02-05 09:55:00
4:15 AM,23.0,19.2,85,29.84,10.0,SSW,10.4,-,N/A,,Overcast,200,2013-02-05 10:15:00
4:35 AM,23.0,19.2,85,29.84,10.0,SSW,10.4,-,N/A,,Overcast,210,2013-02-05 10:35:00
4:55 AM,23.0,19.4,86,29.83,10.0,SSW,10.4,-,N/A,,Scattered Clouds,210,2013-02-05 10:55:00
5:15 AM,23.4,19.4,85,29.83,10.0,SSW,11.5,-,N/A,,Clear,210,2013-02-05 11:15:00
5:35 AM,23.4,19.8,86,29.82,10.0,SSW,11.5,-,N/A,,Clear,210,2013-02-05 11:35:00
5:55 AM,23.7,20.1,86,29.81,10.0,SSW,12.7,-,N/A,,Clear,210,2013-02-05 11:55:00
6:15 AM,23.9,20.3,86,29.81,10.0,SW,15.0,-,N/A,,Clear,220,2013-02-05 12:15:00
6:55 AM,24.3,20.8,87,29.82,10.0,SW,13.8,-,N/A,,Clear,230,2013-02-05 12:55:00
7:15 AM,24.8,21.2,86,29.82,10.0,SW,13.8,-,N/A,,Clear,230,2013-02-05 13:15:00
7:35 AM,25.0,21.4,86,29.82,10.0,SW,10.4,-,N/A,,Clear,220,2013-02-05 13:35:00
8:15 AM,25.2,21.6,86,29.83,10.0,SW,12.7,-,N/A,,Clear,220,2013-02-05 14:15:00
8:35 AM,26.6,22.5,84,29.83,10.0,SW,11.5,-,N/A,,Clear,230,2013-02-05 14:35:00
8:55 AM,28.0,23.2,82,29.83,10.0,SW,10.4,-,N/A,,Clear,230,2013-02-05 14:55:00
9:15 AM,29.7,24.1,80,29.83,10.0,SW,11.5,17.3,N/A,,Clear,230,2013-02-05 15:15:00
9:35 AM,31.3,25.0,77,29.84,10.0,WSW,11.5,18.4,N/A,,Clear,250,2013-02-05 15:35:00
9:55 AM,32.2,25.7,77,29.86,10.0,West,11.5,18.4,N/A,,Clear,260,2013-02-05 15:55:00
10:15 AM,34.0,26.6,74,29.87,10.0,West,13.8,-,N/A,,Clear,270,2013-02-05 16:15:00
10:35 AM,35.6,27.3,72,29.87,10.0,West,13.8,-,N/A,,Clear,260,2013-02-05 16:35:00
10:55 AM,37.0,28.0,70,29.88,10.0,West,12.7,-,N/A,,Clear,270,2013-02-05 16:55:00
11:15 AM,38.5,28.4,67,29.88,10.0,West,15.0,21.9,N/A,,Clear,280,2013-02-05 17:15:00
11:35 AM,39.2,28.8,66,29.89,10.0,West,16.1,21.9,N/A,,Clear,280,2013-02-05 17:35:00
11:55 AM,39.6,29.3,67,29.90,10.0,WNW,15.0,-,N/A,,Clear,290,2013-02-05 17:55:00
12:15 PM,40.1,29.7,66,29.90,10.0,WNW,13.8,18.4,N/A,,Clear,290,2013-02-05 18:15:00
12:35 PM,40.8,30.4,66,29.91,10.0,WNW,13.8,-,N/A,,Clear,300,2013-02-05 18:35:00
12:55 PM,41.4,30.7,66,29.91,10.0,WNW,15.0,21.9,N/A,,Clear,300,2013-02-05 18:55:00
1:15 PM,41.5,30.7,65,29.92,10.0,WNW,13.8,20.7,N/A,,Clear,300,2013-02-05 19:15:00
1:35 PM,41.9,31.3,66,29.92,10.0,WNW,10.4,-,N/A,,Clear,300,2013-02-05 19:35:00
1:55 PM,42.1,31.8,67,29.93,10.0,WNW,11.5,-,N/A,,Scattered Clouds,290,2013-02-05 19:55:00
2:15 PM,42.8,32.0,66,29.93,10.0,WNW,10.4,-,N/A,,Mostly Cloudy,300,2013-02-05 20:15:00
2:35 PM,43.2,32.0,65,29.94,10.0,NW,12.7,-,N/A,,Mostly Cloudy,320,2013-02-05 20:35:00
2:55 PM,43.0,32.0,65,29.94,10.0,WNW,9.2,-,N/A,,Mostly Cloudy,300,2013-02-05 20:55:00
3:15 PM,43.3,32.2,65,29.95,10.0,NW,9.2,-,N/A,,Mostly Cloudy,310,2013-02-05 21:15:00
3:35 PM,43.2,31.3,63,29.95,10.0,NW,13.8,17.3,N/A,,Mostly Cloudy,310,2013-02-05 21:35:00
3:55 PM,43.7,29.8,58,29.96,10.0,NW,15.0,19.6,N/A,,Mostly Cloudy,320,2013-02-05 21:55:00
4:15 PM,43.2,31.6,64,29.97,10.0,NW,9.2,-,N/A,,Mostly Cloudy,320,2013-02-05 22:15:00
4:35 PM,41.7,30.4,64,29.98,10.0,NNW,8.1,-,N/A,,Mostly Cloudy,330,2013-02-05 22:35:00
4:55 PM,40.5,30.7,68,29.99,10.0,NW,11.5,-,N/A,,Mostly Cloudy,320,2013-02-05 22:55:00
5:15 PM,38.3,31.1,75,30.01,10.0,NNW,10.4,-,N/A,,Mostly Cloudy,340,2013-02-05 23:15:00
5:35 PM,36.3,30.9,81,30.01,10.0,North,5.8,-,N/A,,Scattered Clouds,350,2013-02-05 23:35:00
5:55 PM,34.7,30.4,84,30.01,10.0,North,4.6,-,N/A,,Clear,360,2013-02-05 23:55:00
6:15 PM,34.9,30.7,85,30.01,10.0,NNW,3.5,-,N/A,,Clear,340,2013-02-06 00:15:00
6:35 PM,32.5,28.6,85,30.02,10.0,Calm,Calm,-,N/A,,Clear,0,2013-02-06 00:35:00
6:55 PM,34.7,30.4,84,30.03,10.0,Calm,Calm,-,N/A,,Clear,0,2013-02-06 00:55:00
7:15 PM,32.0,29.1,89,30.04,10.0,Calm,Calm,-,N/A,,Clear,0,2013-02-06 01:15:00
7:55 PM,34.0,30.6,87,30.05,10.0,Calm,Calm,-,N/A,,Clear,0,2013-02-06 01:55:00
8:35 PM,30.0,27.7,91,30.06,10.0,Calm,Calm,-,N/A,,Clear,0,2013-02-06 02:35:00
8:55 PM,32.0,29.8,92,30.06,10.0,Calm,Calm,-,N/A,,Clear,0,2013-02-06 02:55:00
9:15 PM,31.8,29.1,90,30.06,10.0,Calm,Calm,-,N/A,,Clear,0,2013-02-06 03:15:00
9:35 PM,29.3,27.3,92,30.07,7.0,Calm,Calm,-,N/A,,Clear,0,2013-02-06 03:35:00
9:55 PM,30.6,28.6,92,30.08,7.0,Calm,Calm,-,N/A,,Clear,0,2013-02-06 03:55:00
10:15 PM,27.9,26.6,95,30.08,7.0,NNW,4.6,-,N/A,,Clear,340,2013-02-06 04:15:00
10:35 PM,29.8,28.0,93,30.08,10.0,NNW,4.6,-,N/A,,Clear,330,2013-02-06 04:35:00
10:55 PM,28.8,26.6,92,30.08,10.0,North,4.6,-,N/A,,Clear,350,2013-02-06 04:55:00
11:15 PM,27.0,24.3,90,30.08,10.0,North,3.5,-,N/A,,Clear,360,2013-02-06 05:15:00
11:35 PM,28.8,26.2,90,30.09,10.0,North,3.5,-,N/A,,Clear,350,2013-02-06 05:35:00
11:55 PM,28.6,26.4,92,30.11,10.0,Calm,Calm,-,N/A,,Clear,0,2013-02-06 05:55:00